sat.trackr.live / text

‹ back to catalog

STARLINK-5119

NORAD 53986 · 2022-125Y

PAYLOAD ACTIVE UNKNOWN

§ Identity

Operator
Country
US
Launch date
2022-10-05
Launch site
AFWTR
Launch vehicle
Mass (kg)
RCS (m²)

Purposes: comms

External: N2YO · Heavens-Above · Gunter

§ Orbital elements

Epoch: 2026-05-24T21:45:49.578048Z

Period
95.44 min
Inclination
53.2131°
Eccentricity
0.0001329
Mean motion
15.08825040 rev/d
Perigee alt
538.9 km
Apogee alt
540.7 km
Semi-major
6,917.9 km
B*
5.8167e-5
RAAN
221.6486°
Arg perigee
80.1740°
Mean anomaly
279.9402°
Rev number
20,110

§ Raw data

STARLINK-51191 53986U 22125Y   26144.90682382  .00000638  00000+0  58167-4 0  99952 53986  53.2131 221.6486 0001329  80.1740 279.9402 15.08825040201102

JSON: /api/v1/satellites/53986 · /tle

For live sub-satellite position, see the globe view (requires WebGL).

§ Visibility from observer

Set your observer location to see the next 7 days of passes ≥ 10°. The values pass through the URL so the page stays shareable.

No JS? Fill the form by hand. The geolocation button needs JavaScript.